{"data":{"norad_id":48984,"epoch":"2026-05-25T04:17:09.916800Z","epoch_age_seconds":62750,"freshness":"FRESH","line1":"1 48984U 21060T   26145.17858700  .00000058  00000+0  11942-3 0  9998","line2":"2 48984  87.9106 233.3428 0002030 102.2468 257.8890 13.16593088236553","mean_motion":13.16593088,"eccentricity":0.000203,"inclination_deg":87.9106,"raan_deg":233.3428,"arg_perigee_deg":102.2468,"mean_anomaly_deg":257.889,"bstar":0.00011942,"rev_number":23655,"period_min":109.37320065894,"perigee_km":1196.2232441809,"apogee_km":1199.2990588304,"semimajor_km":7575.8981515057,"source":"CELESTRAK","updated_at":"2026-05-25T13:38:22.474294Z"}}